CZ-3B DEB, 40849

Orbit data source: Space-Track

CZ-3B DEB, 40849 is space debris in HEO originally from a launch on Mon, 19 Dec 2011 UTC launched from the Xichang Space Center, China (XSC). Debris objects in space refer to the collection of defunct objects orbiting the Earth. Examples of debris include non-operational satellites, rocket bodies, and fragments generated from explosions, collisions, or faulty payload assembly.

Loading next visibility...
Identifier
40849, 2011-077AE
Orbit
HEO
Country
Flag of CNCN / PRC
Related business
Manufacturer
CALT
Mission
Spacecraft
Bus & Motor
Unknown
Mass
Unknown
Launch date (UTC)
2011-12-19 (15 years ago)
Launch vehicle
Unknown
Launch site
Xichang Space Center, China (XSC)
Object type
Payload
Rocket body
Debris
Shape & HBR
Unknown shape, 0.3 m
Radar Cross Section
Medium (>0.1 m² and <1 m²)

Expand to show TLE details & history
Last TLE update: 15 hours ago

TLE from 15 hours ago
0 CZ-3B DEB
1 40849U 11077AE  26256.49467301 -.00000332  00000-0 -26706-2 0  9999
2 40849  26.4488 322.1402 7389219 103.5247 341.0154  1.90651258 93629
Epoch: 2026-09-13T11:52Z
TLE epoch observation values (Epoch: 2026-09-13T11:52:19.748Z)
Latitude
0.00002°
Longitude
151.65667°
Altitude
8,713.956 km
Speed
6.19 km/s
True Right ascension
21h 28m 54s
True Declination
0° 00' 00"
Sunlit
Object was in daylight at epoch
Visualization orbit readout
Latitude
Unknown
Longitude
Unknown
Altitude
Unknown
Speed
Unknown
Apparent Right ascension
Unknown
Apparent Declination
Unknown
Sunlit
N/A
Visualization observer readout
Local Sidereal Time
19:11:19
Azimuth
Unknown
Elevation
Unknown
Doppler factor
Unknown
Orbital elements
Apogee altitude
41,401.986 km
Perigee altitude
795.471 km
Semi-major axis
27,476.865 km
Eccentricity
0.73892
Inclination
26.4488°
RAAN
322.1402°
Arg. of periapsis
103.5247°
True anomaly
256.15332°
Mean anomaly
341.0154°
Eccentric anomaly
307.36769°
Mean motion
0.47653 °/min
Orbital period
755.46 mins
BSTAR
-0.0026706
Loading maneuver chart data...
Computing Atmospheric mass density...
Loading historical data...
Loading historical data...
Loading historical data...
Loading historical data...
Loading historical data...
Loading historical data...
Loading historical data...

Documentation

Showing up to 5 results
|